Location: Newark
(50.0306°N, 2.3272°E)
Time: 02:05:22
(UTC+00:00)

Transit 2A Rocket - Pass Details

Date: 12 December 2019
Orbit: 593 x 910 km, 66.7° (Epoch: 20 January)

Event Time Altitude Azimuth Distance (km) Brightness Sun altitude
Rises 01:52:48 0° 309° (NW) 2,890 - -53.2°
Reaches altitude 10° 01:55:51 10° 286° (WNW) 2,019 - -52.8°
Maximum altitude 01:58:26 15° 251° (WSW) 1,738 - -52.4°
Drops below altitude 10° 02:01:06 10° 216° (SW) 2,099 - -52.1°
Sets 02:04:23 0° 194° (SSW) 3,077 - -51.6°
